Showing default

TIROS 8, 716

Orbit data source: Space-Track

TIROS 8, 716 is a payload satellite owned by GSFC (US) in LEO that was launched on Sat, 21 Dec 1963 UTC via a THOR DELTA B launch vehicle from the Air Force Western Test Range (AFWTR). Payload-class satellites include a variety of spacecraft equipped with specific instruments for various scientific and technological missions. These include communications satellites like Starlink; space stations such as the ISS; scientific satellites like the Hubble; Earth observation satellites from companies like Planet Labs, Umbra, and HawkEye 360; GPS; miniature CubeSats for education and research; and military/defense satellites.

Loading next visibility...
Identifier
716, 1963-054A
Orbit
LEO
Country
Flag of USUS
Related business
Manufacturer
RCA/East Windsor
Mission
Non-operational spacecraft
Bus & Motor
TIROS, Unknown motor
Mass
120 kg wet, 120 kg dry
Launch date (UTC)
1963-12-21 (62 years ago)
Launch vehicle
THOR DELTA B
Launch site
Air Force Western Test Range (AFWTR)
Object type
Payload
Rocket body
Debris
Shape & HBR
Unknown
Radar Cross Section
Medium (>0.1 m² and <1 m²)

Expand to show TLE details & history
Last TLE update: 5 hours ago

TLE from 5 hours ago
0 TIROS 8
1   716U 63054A   26121.20086088  .00000504  00000-0  10679-3 0  9991
2   716  58.4941 210.3251 0020516 182.8074 177.2853 14.73131721308795
Epoch: 2026-05-01T04:49Z
TLE epoch observation values (Epoch: 2026-05-01T04:49:14.380Z)
Latitude
-0.00007°
Longitude
-81.12138°
Altitude
666.912 km
Speed
7.517 km/s
True Right ascension
14h 01m 18s
True Declination
0° 00' 00"
Sunlit
Object was in full shadow at epoch
Visualization orbit readout
Latitude
Unknown
Longitude
Unknown
Altitude
Unknown
Speed
Unknown
Apparent Right ascension
Unknown
Apparent Declination
Unknown
Sunlit
N/A
Visualization observer readout
Local Sidereal Time
17:19:04
Azimuth
Unknown
Elevation
Unknown
Doppler factor
Unknown
Orbital elements
Apogee altitude
664.946 km
Perigee altitude
636.106 km
Semi-major axis
7,028.663 km
Eccentricity
0.00205
Inclination
58.4941°
RAAN
210.3251°
Arg. of periapsis
182.8074°
True anomaly
177.29641°
Mean anomaly
177.2853°
Eccentric anomaly
177.29086°
Mean motion
3.68327 °/min
Orbital period
97.74 mins
BSTAR
0.00010679
Loading maneuver chart data...
Computing Atmospheric mass density...
Loading historical data...
Loading historical data...
Loading historical data...
Loading historical data...
Loading historical data...
Loading historical data...
Loading historical data...
Other satellites on launch #54 in the year 1963 (1963-12-21 UTC)

Documentation

Showing up to 5 results
|